RH
39 28 18 22 30 48 62 52 49 53 79 92 96 98 98 98 95 82 80 81 70 73 78 80 80 77 77 80 76 84 89 83 84 68 81 84 80 82 70 69 72 92 93 71
32 24 36 14 17 43 46 42 48 61 77 88 99 96 96 96 86 79 87 88 80 75 81 77 80 85 87 80 89 88 83 86 87 90 83 87 87 77 87 84 84 89 88 64
8 39 25 39 16 29 38 37 47 59 75 76 74 74 81 91 93 87 74 81 79 83 79 73 86 82 93 95 95 87 84 87 75 78 85 85 92 86 86 89 94 87 86 65
8 24 30 32 48 34 36 37 48 66 84 84 79 73 71 71 82 83 80 74 77 83 86 87 89 94 90 96 95 91 90 87 88 82 82 82 82 77 75 89 77 97 59 79
18 4 32 30 35 51 47 39 62 70 74 87 92 79 76 68 69 76 91 87 83 89 86 78 78 87 84 92 98 98 94 96 92 77 68 69 75 68 75 75 76 91 89 93
22 18 4 24 38 39 51 49 54 54 68 76 79 77 76 71 71 75 84 85 86 83 82 80 82 79 74 76 73 85 88 88 99 81 85 75 75 67 71 79 82 85 92 84
26 23 17 4 9 39 39 51 59 57 62 68 78 84 76 73 76 75 80 72 79 80 85 88 91 92 90 92 92 87 87 88 88 81 74 92 74 72 74 80 74 78 82 81
27 27 24 18 10 3 20 48 46 54 61 60 61 76 76 74 76 74 77 77 84 87 86 91 92 94 98 98 99 94 93 95 90 89 91 68 61 67 72 82 60 75 83 77
26 27 28 26 21 18 9 3 23 51 49 57 61 67 74 75 75 75 79 85 84 90 90 92 87 88 94 89 94 98 95 96 99 98 99 89 85 70 74 81 67 77 83 80
24 27 28 28 27 24 21 18 8 3 32 68 85 84 92 95 90 79 79 85 94 94 89 86 85 90 95 94 90 96 98 99 99 99 92 69 59 65 86 80 76 84 75 76
24 26 28 30 30 27 26 22 17 9 6 20 89 98 93 95 94 97 82 84 86 90 93 89 96 100 97 97 94 93 94 97 97 100 98 83 80 84 87 87 83 78 73 75
26 26 26 30 32 32 30 25 20 14 8 7 57 98 96 96 96 94 97 95 85 90 93 90 90 87 95 97 94 98 98 87 85 79 67 71 81 84 85 88 79 74 72 76
28 28 27 29 32 33 29 21 23 22 18 11 12 69 100 100 94 97 100 100 97 90 86 92 93 98 98 95 88 86 94 99 96 97 72 89 88 82 88 88 73 71 75 80
32 31 29 31 32 24 28 33 36 49 58 31 16 20 99 100 100 95 99 96 96 99 97 97 98 98 94 87 84 86 84 96 94 88 74 79 78 92 86 74 74 69 77 78
37 32 30 32 24 37 32 38 64 97 80 34 21 41 82 98 98 99 97 97 98 100 96 92 95 97 97 100 96 67 76 88 89 80 89 99 89 88 80 72 80 70 70 75
43 32 32 26 34 30 46 53 74 72 75 27 23 72 96 98 98 99 99 98 99 98 95 98 98 100 99 97 98 87 99 98 96 92 89 74 75 82 79 71 84 75 69 70
34 31 29 16 19 50 47 62 91 84 45 46 54 95 95 98 97 97 98 97 98 99 97 98 99 99 100 99 98 99 99 100 99 92 98 76 78 78 75 69 81 79 70 69
30 27 14 12 22 27 42 74 86 70 96 90 94 97 97 98 98 98 99 98 97 96 98 99 99 100 98 96 90 98 96 98 99 91 97 99 90 87 75 70 74 82 72 72
35 59 55 42 43 42 51 69 73 78 92 95 96 97 98 98 99 99 98 98 99 96 91 100 100 98 99 93 91 96 91 92 88 98 92 99 94 83 73 73 75 88 82 74
59 79 82 86 91 89 91 75 87 94 96 95 96 99 98 99 97 99 99 98 96 98 100 100 100 97 100 99 100 77 67 79 96 86 85 86 82 85 83 82 84 92 88 92
54 73 75 78 90 88 90 93 98 98 97 97 98 98 98 99 98 96 96 97 96 88 85 97 98 98 99 97 82 53 42 43 82 94 82 87 90 88 85 85 90 97 98 98
30 50 58 66 76 86 90 97 95 100 100 97 98 97 98 98 97 97 91 85 76 82 91 93 100 81 83 54 47 45 48 52 68 87 88 90 83 80 90 94 93 97 100 100
35 30 32 60 74 81 88 99 100 100 100 100 94 98 97 96 94 76 71 74 96 87 94 91 68 74 50 51 49 60 71 86 88 97 100 100 91 94 93 98 98 99 100 100
38 27 47 59 68 74 78 93 100 100 98 97 99 99 100 94 81 81 76 82 85 92 97 63 74 60 58 61 53 72 88 93 97 98 99 98 99 95 98 99 100 99 99 99
52 36 43 53 56 62 69 76 91 100 99 99 99 98 99 97 94 81 78 83 89 79 60 65 74 51 62 67 67 61 57 57 89 92 95 97 97 98 84 95 99 99 99 98
91 56 32 38 47 56 70 89 98 100 98 96 97 97 95 95 94 94 90 93 66 60 59 69 69 55 58 61 60 57 55 57 57 54 82 89 98 96 93 96 97 99 98 98
90 76 66 28 28 24 73 92 100 100 96 97 98 98 91 94 92 100 99 77 59 54 66 74 72 73 71 70 70 69 68 67 65 62 55 59 90 88 94 95 92 96 99 97
Wind_Speed
29 29 29 25 23 22 21 23 27 20 13 15 15 16 24 21 21 16 12 3 12 25 24 15 17 13 6 9 15 24 11 6 6 11 5 3 12 20 17 6 4 7 3 15
24 23 25 23 18 19 18 23 19 15 19 21 25 27 27 21 17 13 8 5 11 19 22 12 11 12 5 15 13 23 15 6 4 3 9 17 15 21 24 22 20 16 3 12
23 18 15 18 16 15 17 16 13 15 21 19 15 20 20 18 16 12 9 10 13 23 15 8 14 15 11 13 12 17 11 7 6 6 2 6 13 14 17 19 15 19 31 42
24 14 12 9 10 9 8 8 11 11 14 13 12 10 14 14 15 17 17 22 24 15 10 13 17 15 15 16 15 15 13 7 13 15 16 17 19 20 20 25 31 27 39 40
18 18 8 6 8 6 3 7 13 14 13 14 13 17 12 11 10 11 14 14 12 7 15 3 16 15 16 13 21 18 16 8 9 15 11 14 19 18 17 20 24 33 32 35
14 15 14 6 4 5 1 6 8 6 8 8 8 10 7 7 7 8 14 12 11 9 7 6 6 6 12 7 10 23 17 9 4 5 3 12 14 5 9 9 14 17 22 24
13 12 13 12 6 5 6 8 8 6 7 6 6 4 5 6 4 5 9 9 10 8 10 8 7 5 7 7 8 11 9 11 8 8 8 2 7 4 4 9 14 13 16 18
11 14 12 13 12 10 8 10 13 10 9 14 11 10 8 9 7 4 9 9 9 9 9 9 6 8 7 11 12 12 12 10 5 4 7 15 8 7 6 13 12 9 20 19
13 12 12 14 13 13 11 9 16 18 19 18 18 15 13 11 12 9 7 12 13 9 11 9 7 6 7 7 5 14 13 13 14 4 3 4 3 4 9 14 5 20 24 20
14 12 13 14 14 18 18 17 16 16 24 18 19 17 17 15 13 12 11 11 12 13 12 11 7 6 8 6 7 10 15 15 18 14 6 11 6 9 10 5 9 23 21 15
16 14 15 15 18 18 19 26 25 23 23 20 27 24 22 21 18 15 10 11 13 15 14 9 8 7 10 7 8 8 14 11 11 13 7 10 2 4 8 15 17 19 19 12
18 18 19 18 20 21 24 24 29 31 34 19 32 35 31 26 26 21 16 13 11 10 12 10 6 7 7 8 4 11 10 13 5 11 5 6 10 14 14 16 19 18 15 8
20 21 22 23 24 27 30 29 28 32 36 36 31 39 34 34 29 23 21 15 15 10 10 8 8 7 9 8 10 12 12 14 17 13 7 7 7 11 15 14 19 16 10 6
19 21 24 28 30 33 34 33 27 29 32 35 28 30 49 40 32 27 20 19 15 11 9 9 7 7 8 9 10 12 13 16 20 22 20 19 16 11 11 14 15 12 8 7
19 22 26 31 34 33 30 24 21 20 24 19 12 25 40 43 36 24 26 19 15 13 10 9 10 11 11 14 15 10 8 6 13 25 19 19 16 14 13 15 13 11 8 7
21 25 29 33 33 26 18 15 11 13 15 21 19 22 34 37 39 31 27 25 18 13 11 12 14 12 14 9 13 18 11 13 17 20 21 26 22 20 17 15 12 11 9 7
21 26 31 27 21 14 9 5 5 5 9 13 9 6 28 29 31 33 29 27 22 16 15 15 14 13 16 17 19 7 6 7 16 19 20 20 18 19 17 15 12 11 9 7
21 23 18 15 10 7 2 2 4 6 4 2 6 2 31 29 28 28 29 26 20 16 16 15 11 10 10 10 8 13 15 11 5 18 19 19 20 19 17 15 13 11 9 9
13 11 16 13 13 14 9 8 5 10 4 5 8 6 27 27 24 22 25 21 17 14 15 14 10 10 11 11 10 8 12 13 14 12 21 20 21 20 20 17 17 14 14 10
1 6 8 9 9 13 10 10 4 5 8 8 6 10 22 23 23 21 17 17 16 9 7 6 12 15 16 12 12 13 14 11 12 12 13 15 16 15 17 17 16 18 17 16
7 5 7 9 8 5 1 2 1 1 3 5 9 12 18 21 21 19 10 9 7 5 6 9 6 7 14 10 13 16 17 13 11 11 12 11 9 10 12 16 17 19 19 23
9 15 14 12 10 3 4 3 3 1 2 5 8 15 13 18 17 8 9 7 7 5 10 5 5 8 6 7 10 13 12 9 15 10 10 12 6 5 8 10 16 19 21 22
10 11 11 8 6 6 5 3 3 3 5 11 8 11 13 16 10 5 7 5 5 5 6 5 6 5 1 4 9 9 8 11 14 15 15 14 10 10 9 12 17 20 20 14
11 7 7 6 6 6 7 9 9 8 7 12 13 11 9 11 9 4 3 4 5 5 6 6 11 5 2 4 8 6 5 8 16 10 14 14 8 8 7 14 15 21 23 19
7 6 6 10 12 8 8 8 11 11 9 10 16 15 12 10 5 5 6 4 6 7 7 12 10 8 5 1 3 8 11 9 8 10 13 9 6 3 6 11 9 16 23 22
16 10 10 9 9 10 10 5 8 13 14 12 10 8 7 8 5 6 7 4 6 6 12 10 10 8 5 5 6 8 8 8 9 9 8 8 3 3 7 9 9 7 15 15
10 12 13 14 16 17 10 7 8 11 17 16 11 9 8 7 6 8 9 12 6 7 14 12 9 6 6 8 9 9 9 10 9 9 8 7 10 11 9 11 10 5 6 12
Wind_Direction
17 35 28 46 58 72 72 71 75 78 69 42 42 58 111 91 121 115 126 156 190 185 182 178 186 199 214 191 193 187 169 191 188 208 145 172 235 243 234 219 203 230 253 276
16 37 36 49 74 91 78 85 95 79 45 64 80 83 93 95 105 114 132 159 182 184 172 166 174 172 160 157 182 180 183 201 156 153 237 235 235 228 233 246 260 259 257 260
15 28 40 49 77 94 84 105 98 66 64 79 71 88 96 107 107 101 109 145 159 154 163 169 174 176 164 170 177 186 207 224 215 195 147 182 215 228 228 233 255 256 243 285
11 18 37 35 54 82 83 88 88 71 87 68 72 123 112 113 119 119 114 120 130 140 139 155 166 176 174 179 177 185 214 245 250 255 253 247 252 255 251 244 258 257 292 289
4 13 16 29 17 23 94 140 108 97 94 94 96 126 134 126 124 139 140 147 158 159 155 172 182 184 193 178 196 194 209 236 279 288 262 254 261 257 253 256 261 263 286 300
359 4 8 342 316 336 36 171 160 126 127 117 128 135 140 140 134 138 171 163 169 185 190 150 160 178 175 198 213 214 216 255 280 282 223 292 281 223 222 265 286 297 285 330
336 355 356 4 332 277 275 271 252 252 187 178 164 179 188 179 190 183 183 190 193 188 177 179 194 192 183 198 202 212 220 234 249 289 306 252 175 177 272 295 320 300 308 336
319 331 346 348 359 348 274 258 263 263 251 239 238 214 218 221 219 218 213 208 199 192 194 188 187 208 218 221 220 225 225 229 245 265 283 290 249 213 312 325 331 355 348 345
300 310 322 332 332 339 341 302 259 257 246 247 242 233 234 233 229 225 221 209 206 200 188 192 202 201 202 196 208 219 229 235 233 224 280 261 196 262 319 328 334 341 337 337
281 291 302 310 323 325 322 322 313 274 254 232 223 226 220 218 222 228 223 212 205 200 201 206 207 211 195 196 201 197 211 227 233 232 252 280 233 278 313 336 323 327 327 331
283 283 288 299 304 306 310 310 309 299 281 245 217 213 216 218 212 215 224 214 212 212 206 212 215 205 199 221 224 213 200 202 212 225 229 264 230 292 321 318 327 320 320 318
288 291 293 296 297 298 299 298 294 290 286 262 227 216 207 212 220 216 214 204 190 197 199 212 208 209 207 220 231 225 230 219 229 219 241 199 302 289 306 315 323 319 319 301
288 293 298 300 301 300 298 295 286 277 269 266 244 222 205 205 210 212 216 206 195 194 201 211 216 222 222 217 237 229 236 251 247 252 257 249 240 305 301 309 311 309 312 303
291 298 303 305 307 306 303 301 289 274 267 263 249 222 208 199 200 205 208 196 203 208 212 225 251 258 259 252 251 249 244 253 259 261 261 270 270 260 291 307 308 298 297 286
301 305 308 308 309 308 305 303 289 262 258 256 271 223 206 200 196 194 206 198 193 203 227 240 260 275 283 292 286 289 321 294 257 263 258 257 241 244 276 306 310 289 281 275
310 310 311 312 310 307 311 311 296 266 240 245 266 203 193 194 196 202 209 210 216 233 247 254 258 267 259 282 279 303 307 279 258 256 243 250 252 252 270 290 304 285 273 262
313 314 317 316 310 306 306 299 318 300 246 258 278 233 186 178 195 204 210 217 218 234 248 258 258 269 270 272 275 303 288 270 266 257 249 243 254 264 269 276 292 280 268 254
320 327 337 340 328 323 24 154 314 7 67 204 282 90 166 176 188 197 208 218 217 228 243 256 269 251 260 252 247 295 280 282 236 241 246 250 251 261 272 262 279 270 258 252
341 32 31 42 60 74 88 86 81 154 171 268 281 82 155 171 185 192 201 207 216 227 242 248 252 245 232 238 268 300 327 279 280 266 249 256 261 260 267 257 273 246 239 237
65 31 15 37 58 70 83 104 129 223 291 307 25 130 138 168 174 177 183 208 212 193 235 227 233 245 242 250 275 301 305 306 290 285 261 253 248 254 255 253 245 229 228 212
259 291 342 348 319 349 329 143 203 309 340 15 89 142 154 167 172 175 175 174 175 198 218 205 235 241 226 252 288 297 305 291 303 293 250 243 247 272 266 244 237 237 243 228
276 266 285 304 289 261 260 204 213 167 71 148 93 161 148 156 166 146 187 175 189 204 217 220 239 240 220 288 308 316 305 291 284 290 252 228 236 299 322 259 231 234 241 261
281 289 271 267 251 236 240 235 220 207 196 170 170 160 159 162 154 200 190 206 191 197 211 225 203 177 249 342 338 334 327 305 316 295 231 204 228 264 281 318 236 227 236 230
291 273 233 254 238 233 224 231 206 210 205 194 182 178 168 175 193 214 220 221 215 219 217 205 173 182 145 45 29 19 359 359 19 344 203 207 226 281 268 316 247 237 221 212
267 262 239 241 249 252 269 267 242 199 193 198 201 203 207 193 195 218 222 221 224 219 200 177 180 180 187 148 40 37 33 13 344 4 5 276 237 254 321 327 261 239 222 210
232 230 251 271 280 276 256 239 211 203 186 192 194 199 210 217 222 219 216 224 225 215 185 185 186 189 206 251 288 306 323 341 2 359 328 339 307 323 314 325 345 343 225 207
236 235 259 274 272 267 261 228 203 202 194 198 197 194 196 202 216 224 224 231 240 216 197 197 194 206 249 276 290 306 321 333 335 323 326 305 278 280 287 290 298 259 217 207